Tracking 19909 objects as of 21-Oct-2019
HD Live streaming from Space Station
objects crossing your sky now

COSMOS 2251 DEB

Track COSMOS 2251 DEB now!
10-day predictions


NORAD ID: 36058
Int'l Code: 1993-036AXV
Perigee: 698.7 km
Apogee: 779.7 km
Inclination: 74.0 °
Period: 99.4 minutes
Semi major axis: 7110 km
RCS: 0.0068 m2 (small)
Launch date: June 16, 1993
Source: Commonwealth of Independent States (former USSR) (CIS)
Launch site: PLESETSK MISSILE AND SPACE COMPLEX (PKMTR)

Note: This is SATELLITE DEBRIS
aabbcc
Your satellite tracking list
Your tracking list is empty




NASA's NSSDC Master Catalog

Two Line Element Set (TLE):
1 36058U 93036AXV 19288.43562587 +.00000225 +00000-0 +67010-4 0  9998
2 36058 074.0253 309.1402 0056971 276.4086 083.0588 14.48044091334710
Source of the keplerian elements: AFSPC